Location: Newark
(40.0251°N, 85.2247°W)
Time: 14:06:10
(UTC+00:00)

Hubble Space Telescope - Pass Details

Date: 19 December 2019
Orbit: 536 x 540 km, 28.5° (Epoch: 24 January)

Event Time Altitude Azimuth Distance (km) Brightness Sun altitude
Exits shadow 10:46:28 16° 185° (S) 1,434 3.0 -24.3°
Maximum altitude 10:46:51 16° 179° (S) 1,426 3.0 -24.2°
Drops below altitude 10° 10:49:28 10° 139° (SE) 1,785 4.1 -23.7°
Sets 10:52:23 0° 118° (ESE) 2,676 5.6 -23.2°
